LZ3VG Weather Reports


Display with metric or nautical units.
time (UTC)temp
F
wind
direction
speed
MPH
gust
MPH
rain 1hr
in
rain 24hr
in
rain mn
in
humidity
%
barometer
mb
20260508053032 54 277 1.0 3.0 0.00 0.00 0.00 99 1017.6
20260508052024 53 349 2.0 5.0 0.00 0.00 0.00 99 1017.6
20260508051037 53 4 2.0 6.0 0.00 0.00 0.00 99 1017.6
20260508050041 53 281 2.0 3.0 0.00 0.00 0.00 99 1017.5
20260508045032 53 264 1.0 2.0 0.00 0.00 0.00 99 1017.5
20260508044044 53 8 0.0 2.0 0.00 0.00 0.00 99 1017.2
20260508043016 53 305 1.0 3.0 0.00 0.00 0.00 99 1017.2
20260508042041 53 352 0.0 1.0 0.00 0.00 0.00 99 1017.1
20260508041032 53 10 0.0 2.0 0.00 0.00 0.00 99 1016.9
20260508040042 52 11 1.0 2.0 0.00 0.00 0.00 99 1016.8
20260508035032 53 358 0.0 1.0 0.00 0.00 0.00 99 1016.7
20260508034025 52 58 0.0 1.0 0.00 0.00 0.00 99 1016.8
20260508033055 52 79 1.0 2.0 0.00 0.00 0.00 99 1016.7
20260508032041 52 0.0 0.0 0.00 0.00 0.00 99 1016.8
20260508031033 52 103 1.0 2.0 0.00 0.00 0.00 99 1016.7
20260508030024 52 78 0.0 1.0 0.00 0.00 0.00 99 1016.7
20260508025017 52 21 0.0 1.0 0.00 0.00 0.00 99 1016.7
20260508024041 52 134 1.0 2.0 0.00 0.00 0.00 99 1016.7
20260508023032 52 128 1.0 2.0 0.00 0.00 0.00 99 1016.6
20260508022025 52 130 1.0 2.0 0.00 0.00 0.00 99 1016.6
20260508021016 52 59 1.0 2.0 0.00 0.00 0.00 99 1016.8
20260508020042 52 53 0.0 1.0 0.00 0.00 0.00 99 1016.7
20260508015017 52 138 2.0 2.0 0.00 0.00 0.00 99 1016.7
20260508014105 52 0.0 0.0 0.00 0.00 0.00 99 1016.8
20260508013037 52 0.0 0.0 0.00 0.00 0.00 99 1016.8
20260508012101 52 23 0.0 1.0 0.00 0.00 0.00 99 1016.9
20260508011053 51 109 1.0 2.0 0.00 0.00 0.00 99 1017.1
20260508010024 52 0.0 0.0 0.00 0.00 0.00 99 1017.0
20260508005017 52 97 1.0 2.0 0.00 0.00 0.00 99 1017.0
20260508004025 52 97 1.0 3.0 0.00 0.00 0.00 99 1017.0
20260508003032 52 71 0.0 2.0 0.00 0.00 0.00 99 1017.0
20260508002040 52 76 1.0 2.0 0.00 0.00 0.00 99 1017.1
20260508001037 52 160 1.0 3.0 0.00 0.00 0.00 99 1017.2
20260508000041 53 69 0.0 1.0 0.00 0.00 0.00 99 1017.2
20260507235017 53 78 1.0 2.0 0.00 0.00 0.00 99 1017.2
20260507234045 53 65 2.0 5.0 0.00 0.00 0.00 99 1017.0
20260507233017 53 79 2.0 6.0 0.00 0.00 0.00 99 1016.9
20260507232101 53 80 3.0 7.0 0.00 0.00 0.00 99 1017.1
20260507231017 53 49 2.0 6.0 0.00 0.00 0.00 99 1017.0
20260507230041 54 57 1.0 3.0 0.00 0.00 0.00 99 1017.1
20260507225052 54 75 1.0 5.0 0.00 0.00 0.00 99 1017.1
20260507224025 54 62 2.0 6.0 0.00 0.00 0.00 99 1017.1
20260507223053 54 58 2.0 5.0 0.00 0.00 0.00 99 1017.2
20260507222026 54 46 1.0 6.0 0.00 0.00 0.00 99 1017.3
20260507221017 54 24 0.0 1.0 0.00 0.00 0.00 99 1017.4
20260507220032 54 48 2.0 8.0 0.00 0.00 0.00 99 1017.4
20260507215018 54 56 2.0 7.0 0.00 0.00 0.00 99 1017.4
20260507214045 54 53 3.0 8.0 0.00 0.00 0.00 99 1017.4
20260507213033 54 56 3.0 6.0 0.00 0.00 0.00 99 1017.3
20260507212025 54 44 2.0 5.0 0.00 0.00 0.00 99 1017.3
20260507211052 54 64 3.0 9.0 0.00 0.00 0.00 99 1017.4
20260507210041 54 39 3.0 7.0 0.00 0.00 0.00 99 1017.3
20260507205017 54 52 2.0 6.0 0.00 0.00 0.00 99 1017.4
20260507204025 54 56 2.0 6.0 0.00 0.00 0.00 99 1017.3
20260507203034 54 53 2.0 5.0 0.00 0.00 0.00 99 1017.3
20260507202041 54 50 2.0 6.0 0.00 0.00 0.00 99 1017.3
20260507201017 55 51 3.0 6.0 0.00 0.00 0.00 99 1017.4
20260507200026 55 46 2.0 6.0 0.00 0.00 0.00 99 1017.5
20260507195018 55 65 2.0 6.0 0.00 0.00 0.00 99 1017.4
20260507194045 55 44 3.0 6.0 0.00 0.00 0.00 99 1017.4
20260507193112 55 45 2.0 5.0 0.00 0.00 0.00 99 1017.4
20260507192042 55 35 2.0 5.0 0.00 0.00 0.00 99 1017.3
20260507191032 55 23 2.0 6.0 0.00 0.00 0.00 99 1017.3
20260507190025 55 42 4.0 8.0 0.00 0.00 0.00 99 1017.4
20260507185018 54 51 1.0 6.0 0.00 0.00 0.00 99 1017.3
20260507184042 54 39 3.0 8.0 0.00 0.00 0.00 99 1017.2
20260507183032 54 68 2.0 7.0 0.00 0.00 0.00 99 1017.3
20260507182041 54 58 2.0 9.0 0.00 0.00 0.00 99 1017.2
20260507181032 54 42 4.0 7.0 0.00 0.00 0.00 99 1016.9
20260507175031 55 68 2.0 7.0 0.00 0.00 0.00 99 1017.1
20260507174025 55 62 2.0 5.0 0.00 0.00 0.00 98 1017.1
20260507173057 55 59 5.0 9.0 0.00 0.00 0.00 98 1016.8
20260507172101 55 84 5.0 10.0 0.00 0.00 0.00 98 1016.9
20260507171033 55 52 7.0 11.0 0.00 0.00 0.00 97 1016.9
20260507170026 55 64 5.0 13.0 0.00 0.00 0.00 97 1016.9
20260507165017 55 67 5.0 9.0 0.00 0.00 0.00 96 1017.0
20260507164101 55 30 4.0 9.0 0.00 0.00 0.00 96 1017.0
20260507163032 55 60 5.0 11.0 0.00 0.00 0.00 95 1016.9
20260507162026 56 64 4.0 9.0 0.00 0.00 0.00 95 1016.8
20260507161017 56 59 4.0 9.0 0.00 0.00 0.00 94 1016.8
20260507160041 56 39 4.0 10.0 0.00 0.00 0.00 94 1016.8
20260507155032 56 64 3.0 8.0 0.00 0.00 0.00 93 1016.8
20260507154046 56 40 4.0 14.0 0.00 0.00 0.00 92 1016.9
20260507153017 57 63 4.0 9.0 0.00 0.00 0.00 91 1016.8
20260507152041 58 40 4.0 14.0 0.00 0.00 0.00 89 1016.9
20260507151019 58 41 5.0 11.0 0.00 0.00 0.00 88 1017.1
20260507150026 59 38 4.0 8.0 0.00 0.00 0.00 86 1017.0
20260507145018 59 54 3.0 6.0 0.00 0.00 0.00 86 1017.2
20260507144025 59 51 4.0 10.0 0.00 0.00 0.00 86 1017.1
20260507143017 59 62 4.0 10.0 0.00 0.00 0.00 85 1017.1
20260507142041 60 18 4.0 9.0 0.00 0.00 0.00 85 1017.2
20260507141033 60 57 3.0 8.0 0.00 0.00 0.00 85 1017.2
20260507140026 60 39 4.0 9.0 0.00 0.00 0.00 84 1017.2
20260507135110 59 54 4.0 13.0 0.00 0.00 0.00 86 1017.2
20260507134026 59 36 5.0 15.0 0.00 0.00 0.00 86 1017.2
20260507133037 59 61 5.0 14.0 0.00 0.00 0.00 86 1017.1
20260507132026 59 52 4.0 8.0 0.00 0.00 0.00 86 1017.2
20260507131018 59 40 5.0 16.0 0.00 0.00 0.00 85 1017.3
20260507130041 59 61 4.0 9.0 0.00 0.00 0.00 85 1017.4
20260507125034 60 74 5.0 14.0 0.00 0.00 0.00 84 1017.3
20260507124025 60 85 4.0 9.0 0.00 0.00 0.00 84 1017.5
20260507123017 59 63 3.0 8.0 0.00 0.00 0.00 86 1017.6
20260507122041 58 54 8.0 20.0 0.00 0.00 0.00 87 1017.8
20260507121034 59 69 7.0 18.0 0.00 0.00 0.00 85 1017.8
20260507120026 58 47 4.0 9.0 0.00 0.00 0.00 87 1017.9
20260507115018 58 52 5.0 14.0 0.00 0.00 0.00 86 1018.0
20260507114102 58 36 6.0 11.0 0.00 0.00 0.00 87 1017.9
20260507113034 58 31 5.0 11.0 0.00 0.00 0.00 86 1017.9
20260507112043 59 50 4.0 14.0 0.00 0.00 0.00 85 1018.0
20260507111054 58 54 7.0 14.0 0.00 0.00 0.00 86 1018.0
20260507110042 59 72 6.0 13.0 0.00 0.00 0.00 84 1018.0
20260507105034 60 43 3.0 9.0 0.00 0.00 0.00 82 1018.0
20260507104026 60 39 3.0 9.0 0.00 0.00 0.00 81 1018.0
20260507103018 60 55 3.0 9.0 0.00 0.00 0.00 82 1018.1
20260507102026 60 69 3.0 9.0 0.00 0.00 0.00 81 1018.2
20260507101019 60 60 3.0 10.0 0.00 0.00 0.00 81 1018.2
20260507100026 60 79 3.0 8.0 0.00 0.00 0.00 80 1018.1
20260507095018 60 67 3.0 6.0 0.00 0.00 0.00 81 1018.1
20260507094042 60 34 2.0 7.0 0.00 0.00 0.00 80 1018.2
20260507093052 59 34 2.0 3.0 0.00 0.00 0.00 81 1018.2
20260507092026 59 48 3.0 8.0 0.00 0.00 0.00 82 1018.3
20260507091038 59 61 3.0 9.0 0.00 0.00 0.00 83 1018.3
20260507090042 58 61 2.0 6.0 0.00 0.00 0.00 84 1018.4
20260507085020 58 53 3.0 9.0 0.00 0.00 0.00 85 1018.3
20260507084043 57 58 3.0 9.0 0.00 0.00 0.00 85 1018.3
20260507083034 56 54 3.0 8.0 0.00 0.00 0.00 87 1018.3
20260507082029 58 71 3.0 10.0 0.00 0.00 0.00 84 1018.3
20260507081018 56 67 3.0 7.0 0.00 0.00 0.00 84 1018.3
20260507080042 56 75 3.0 8.0 0.00 0.00 0.00 86 1018.3
20260507075034 57 75 4.0 7.0 0.00 0.00 0.00 82 1018.4
20260507074027 56 70 2.0 6.0 0.00 0.00 0.00 84 1018.5
20260507073018 58 80 3.0 6.0 0.00 0.00 0.00 81 1018.4
20260507072033 57 124 1.0 3.0 0.00 0.00 0.00 81 1018.4
20260507071034 57 180 2.0 5.0 0.00 0.00 0.00 82 1018.5
20260507070026 56 119 2.0 6.0 0.00 0.00 0.00 84 1018.6
20260507065018 54 73 2.0 5.0 0.00 0.00 0.00 89 1018.3
20260507064042 53 66 1.0 3.0 0.00 0.00 0.00 95 1018.4
20260507063034 53 57 0.0 2.0 0.00 0.00 0.00 99 1018.4
20260507062026 51 8 1.0 2.0 0.00 0.00 0.00 99 1018.5
20260507061018 50 161 3.0 6.0 0.00 0.00 0.00 99 1018.5
20260507060043 49 130 2.0 6.0 0.00 0.00 0.00 99 1018.5
20260507055019 49 27 1.0 2.0 0.00 0.00 0.00 99 1018.5
20260507054026 49 7 0.0 1.0 0.00 0.00 0.00 99 1018.5